Location: Bush Observatory
(40.2653°N, 94.3194°W)
Time: 06:45:56
(UTC-05:00)

Daily predictions for brighter satellites

Satellite Brightness Start Highest point End
(mag) Time Altitude Azimuth Time Altitude Azimuth Time Altitude Azimuth
ATLAS 5 CENTAUR R/B 4.0 21:14:15 10° WSW 21:18:43 34° NW 21:23:30 10° NNE
SJ-11-01 4.4 21:16:00 10° SSE 21:20:40 69° ENE 21:25:24 10° N
AVUM R/B 3.9 21:19:49 10° SSE 21:21:33 19° ESE 21:23:25 10° ENE
Meteor 1-21 Rocket 4.3 21:16:23 10° S 21:21:48 57° E 21:27:13 10° NNE
Cosmos 2151 4.4 21:19:53 10° SE 21:23:01 21° E 21:26:10 10° NE
Cosmos 1553 Rocket 4.1 21:17:28 10° N 21:23:53 73° E 21:30:11 10° SSE
Cosmos 405 4.4 21:21:16 10° NNE 21:24:19 25° ENE 21:27:21 10° SE
YAOGAN 6 4.5 21:24:13 10° ESE 21:26:36 17° ENE 21:28:57 10° NNE
H-2A R/B 4.2 21:32:04 10° ENE 21:33:56 12° ENE 21:35:50 10° NE
Cosmos 1151 Rocket 3.7 21:30:28 10° N 21:34:29 37° ENE 21:38:30 10° SSE
Cosmos 2219 Rocket 4.4 21:33:30 10° NNE 21:35:30 12° NE 21:37:30 10° ENE
CZ-2C R/B -0.3 21:35:02 10° S 21:36:41 71° WSW 21:38:20 10° NNW
OE (NEXTSAT) 4.4 21:36:54 10° WNW 21:40:31 88° NNE 21:43:51 12° ESE
ARGOS 4.4 21:37:14 10° ESE 21:41:38 26° ENE 21:46:02 10° N
Cosmos 1538 Rocket 4.3 21:39:27 10° NNW 21:44:46 70° WSW 21:50:06 10° S
Cosmos 1680 Rocket 4.2 21:40:10 10° N 21:45:08 41° ENE 21:49:36 12° SE
Cosmos 2058 4.1 21:46:02 12° SE 21:48:53 24° E 21:52:11 10° NE
Cosmos 923 Rocket 4.2 21:43:46 10° NNW 21:48:55 58° ENE 21:53:33 13° SSE
H-2A R/B 2.4 21:49:08 10° S 21:53:38 70° WSW 21:58:11 10° NNW
CZ-4B R/B 4.1 21:48:45 10° NNE 21:53:40 38° E 21:58:29 10° SSE
Cosmos 2219 3.7 21:49:27 10° S 21:54:43 38° ESE 22:00:00 10° NE
Meteor 2-20 4.5 21:50:20 10° S 21:56:29 87° E 22:02:39 10° N
Cosmos 1441 Rocket 4.0 21:53:49 10° SSW 21:57:31 53° WNW 22:01:13 10° N
Cosmos 1328 Rocket 4.5 21:53:35 10° NNW 21:57:54 49° W 22:02:09 10° SSW
Terra 3.8 21:56:08 10° E 21:58:44 15° ENE 22:01:19 10° NNE
CZ-4 SHROUD 3.2 21:57:27 15° SSE 21:59:57 70° ENE 22:03:05 10° N
Cosmos 1726 3.9 21:58:20 10° NNE 22:01:04 19° ENE 22:02:46 14° ESE
Cosmos 2322 3.8 21:57:56 10° NNW 22:03:40 69° ENE 22:08:14 16° SSE
Cosmos 2237 Rocket 4.3 22:01:20 10° NNE 22:04:08 14° NE 22:06:55 10° ENE
Cosmos 2322 Rocket 3.4 22:02:33 10° NW 22:07:42 38° WSW 22:12:49 10° S
USA 229 DEB 4.0 22:01:07 10° SW 22:08:01 74° NW 22:15:03 10° NNE
USA 229 4.0 22:01:12 10° SW 22:08:07 75° NW 22:15:09 10° NNE
Cosmos 773 Rocket 4.1 22:02:56 10° NNW 22:08:08 74° WSW 22:12:51 13° S
CZ-4 R/B 4.4 22:08:32 10° NNE 22:13:12 40° E 22:16:33 17° SSE
SL-16 R/B 3.6 22:12:41 10° NW 22:17:44 34° WSW 22:22:45 10° SSW
ATLAS CENTAUR R/B 4.0 22:15:54 10° WNW 22:17:57 13° WSW 22:19:54 10° SW
Cosmos 1908 3.9 22:14:09 10° NNW 22:17:59 54° W 22:21:34 11° S
Cosmos 2360 Rocket 2.2 22:12:26 10° NNW 22:18:07 89° WSW 22:22:22 18° SSE
NOAA 11 4.5 22:16:38 19° SE 22:20:25 54° ENE 22:25:44 10° N
NOSS 3-1 (A) 3.7 22:22:16 10° S 22:27:42 42° ESE 22:33:38 10° NE
Meteor 1-11 4.3 22:25:07 15° S 22:29:52 61° E 22:35:31 10° NNE
MetOp-B 4.4 22:26:49 15° S 22:31:19 69° WSW 22:36:40 10° NNW
Meteor 1-4 Rocket 3.7 22:29:51 10° NNE 22:33:12 29° ENE 22:34:10 25° ESE
Cosmos 1674 4.3 22:30:16 10° SW 22:33:47 35° WNW 22:37:21 10° N
Delta 2 Rocket 3.4 22:31:45 10° WSW 22:34:57 35° S 22:35:08 35° SSE
Cosmos 2242 Rocket 4.2 22:33:08 10° N 22:37:22 40° ENE 22:39:06 28° SE
SPOT 5 3.8 22:34:33 12° SSW 22:38:30 40° W 22:42:58 10° NNW
Envisat 4.4 22:34:23 10° SSW 22:38:58 34° W 22:43:35 10° NNW
Cosmos 1626 4.1 22:40:11 16° E 22:40:11 16° E 22:42:19 10° NE
Tiangong 1 3.4 22:38:48 10° SW 22:39:15 13° SW 22:39:15 13° SW
SL-08 RB Rocket 3.6 22:40:45 29° SSE 22:43:02 77° ENE 22:47:32 10° N
Cosmos 2227 Rocket 3.3 22:42:28 24° ESE 22:43:28 25° ESE 22:47:59 10° NE
Cosmos 1300 2.6 22:40:38 10° N 22:44:30 88° E 22:46:04 34° S
DELTA 2 DEB (DPAF) 4.3 22:42:51 31° SE 22:44:52 61° ENE 22:49:19 10° N
Cosmos 1437 4.5 22:42:16 10° SW 22:45:16 32° WNW 22:48:17 10° N
USA 245 3.2 22:48:00 36° SW 22:48:32 42° WSW 22:50:52 10° NNW
Cosmos 2112 Rocket 4.4 22:44:55 10° NNW 22:50:04 60° WSW 22:53:12 24° S
ATLAS 2AS CENTAUR R/B 3.7 22:48:09 25° SE 22:50:23 29° ESE 22:56:51 10° NE
SL-23 DEB 3.6 22:46:06 10° NW 22:50:43 75° SW 22:51:39 46° SSE
Cosmos 2333 Rocket 3.3 22:47:07 10° N 22:52:19 34° ENE 22:55:11 22° ESE
Cosmos 2298 Rocket 3.9 22:48:23 16° SSW 22:52:44 80° ESE 22:58:04 10° NNE
DELTA 2 R/B (1) 3.8 22:49:38 10° W 22:55:00 52° SSW 22:57:09 33° SE
H-2A R/B 4.4 22:50:40 10° SW 22:55:29 35° SSE 23:18:51 10° E
CARTOSAT-1 3.9 22:54:18 36° SE 22:55:41 51° ENE 22:59:53 10° N
SL-16 R/B 4.3 22:52:49 10° NNE 22:56:10 16° NE 22:59:31 10° E
Sich 1 3.0 22:56:58 28° S 22:59:18 85° W 23:03:44 10° N
YAOGAN 6 4.2 22:57:57 18° SW 22:59:57 29° W 23:03:10 10° NW
Cosmos 1633 Rocket 3.0 22:58:07 30° S 23:00:16 88° WNW 23:04:40 10° N
Cosmos 1937 Rocket 3.6 22:58:30 32° SSE 23:00:46 57° ESE 23:05:53 10° NNE
COSMOS 2428 2.7 22:58:27 10° NNW 23:04:08 78° WSW 23:06:47 33° SSE
CZ-4C R/B 3.0 23:05:06 54° S 23:05:46 76° WSW 23:09:15 10° NNW
Cosmos 1869 4.5 23:03:45 10° NNE 23:07:19 29° ENE 23:07:41 28° E
Cosmos 1455 3.1 23:03:51 10° NNE 23:07:20 34° ENE 23:07:33 33° E
Cosmos 2297 Rocket 3.1 23:10:25 29° ESE 23:10:50 29° ESE 23:15:38 10° NE
ATLAS 3B R/B 4.1 23:05:03 10° NNW 23:11:05 29° NE 23:16:07 13° E
H-2A R/B 2.1 23:10:13 37° SSE 23:12:27 85° ENE 23:17:54 10° NNW
Cosmos 990 Rocket 4.1 23:13:38 42° SSE 23:14:56 53° ESE 23:19:57 10° NNE
NOSS 3-1 (C) 3.7 23:09:30 10° SW 23:15:21 69° NW 23:21:52 10° NNE
Lacrosse 4 Rocket 3.9 23:15:10 10° NNE 23:17:29 14° NE 23:19:35 11° ENE
Landsat 7 4.1 23:18:17 36° SSW 23:20:04 62° WSW 23:24:48 10° NNW
Cosmos 2219 Rocket 2.2 23:14:53 10° NNW 23:20:29 72° ENE 23:22:26 41° SE
ARGOS 4.1 23:18:34 22° SSW 23:21:38 40° W 23:26:43 10° NNW
Cosmos 1241 Rocket 4.5 23:20:29 35° S 23:22:53 56° ESE 23:28:59 10° NE
BREEZE-M DEB (TANK) 3.6 23:25:18 10° NW 23:27:19 33° NNE 23:27:41 31° NE
Cosmos 292 Rocket 3.8 23:26:20 10° NNW 23:31:06 73° WSW 23:32:10 52° S
SAR-Lupe-2 3.6 23:31:37 70° WSW 23:31:41 70° WSW 23:35:16 10° NNW
Spot 4 3.8 23:31:37 52° S 23:32:50 86° WSW 23:37:43 10° NNW
Nadezhda 1 Rocket 3.9 23:28:49 10° N 23:34:56 86° W 23:37:15 41° S
Cosmos 1703 4.0 23:34:08 37° WSW 23:35:11 47° W 23:38:58 10° N
Terra 2.1 23:34:39 44° SSW 23:35:56 62° W 23:40:40 10° NNW
Cosmos 1980 3.7 23:30:18 10° NNW 23:35:57 69° ENE 23:37:35 46° SE
Cosmos 1726 3.9 23:33:16 10° NW 23:36:26 25° W 23:37:27 22° WSW
Cosmos 1271 Rocket 3.5 23:34:20 10° NNW 23:37:57 41° W 23:38:28 39° WSW
Cosmos 1346 4.2 23:39:15 44° N 23:39:15 44° N 23:41:29 10° N
Cosmos 1898 Rocket 4.5 23:36:30 14° SW 23:40:45 44° WNW 23:45:45 10° N
COSMOS 2455 3.8 23:37:41 10° NNW 23:43:15 37° NE 23:45:49 26° E
CZ-4B R/B 4.2 23:44:09 11° ENE 23:44:09 11° ENE 23:44:43 10° NE
Cosmos 1745 Rocket 4.4 23:42:06 25° SSW 23:45:41 59° W 23:51:49 10° N
Cosmos 1125 Rocket 3.9 23:46:29 43° ESE 23:46:38 44° ESE 23:51:40 10° NNE
BREEZE-M TANK 4.1 23:27:38 10° WSW 23:47:43 78° NNW 23:51:55 10° ENE
Cosmos 2237 Rocket 2.1 23:43:23 10° NNW 23:49:07 81° ENE 23:50:31 53° SE
Cosmos 1470 Rocket 4.2 23:48:55 40° WSW 23:49:58 50° W 23:54:11 10° N
Cosmos 2082 3.6 23:49:09 42° SSW 23:51:12 89° ESE 23:56:58 10° NNE
Cosmos 1933 Rocket 4.2 23:50:13 40° SW 23:51:23 51° W 23:55:45 10° N
IGS 5A 4.3 23:51:10 39° WSW 23:51:40 40° W 23:55:38 10° NNW
Cosmos 1703 Rocket 4.0 23:50:24 10° N 23:54:35 48° ENE 23:54:35 48° ENE
Cosmos 2221 Rocket 4.1 23:51:00 10° N 23:55:26 47° E 23:55:32 47° E
Okean 1-7 4.2 23:51:59 10° NNE 23:55:37 30° ENE 23:55:37 30° ENE
